Tiempo cada hora Angles

Hoy, 19 Enero, Martes

Tiempo Temperatura Precipitaciones Viento Presión Humedad
00:00 +5°C° 0 mm 1 mps 739 mmHg 83%
01:00 +4°C° 0 mm 1 mps 738 mmHg 82%
02:00 +4°C° 0 mm 1 mps 738 mmHg 80%
03:00 +4°C° 0 mm 1 mps 737 mmHg 79%
04:00 +4°C° 0 mm 1 mps 737 mmHg 77%
05:00 +4°C° 0 mm 1 mps 737 mmHg 75%
06:00 +3°C° 0 mm 1 mps 737 mmHg 73%
07:00 +5°C° 0 mm 1 mps 737 mmHg 67%
08:00 +6°C° 0 mm 1 mps 737 mmHg 62%
09:00 +7°C° 0 mm 1 mps 737 mmHg 57%
10:00 +9°C° 0 mm 1 mps 737 mmHg 51%
11:00 +10°C° 0 mm 2 mps 737 mmHg 46%
12:00 +12°C° 0 mm 2 mps 737 mmHg 41%
13:00 +12°C° 0 mm 2 mps 736 mmHg 44%
14:00 +12°C° 0 mm 2 mps 736 mmHg 47%
15:00 +12°C° 0 mm 2 mps 735 mmHg 50%
16:00 +9°C° 0 mm 2 mps 735 mmHg 60%
17:00 +7°C° 0 mm 2 mps 735 mmHg 70%
18:00 +5°C° 0 mm 2 mps 734 mmHg 80%
19:00 +5°C° 0 mm 2 mps 734 mmHg 80%
20:00 +5°C° 0 mm 2 mps 734 mmHg 80%
21:00 +4°C° 0 mm 2 mps 734 mmHg 79%
22:00 +4°C° 0 mm 2 mps 734 mmHg 78%
23:00 +4°C° 0 mm 2 mps 733 mmHg 77%

Mañana, 20 Enero, Miércoles

Tiempo Temperatura Precipitaciones Viento Presión Humedad
00:00 +4°C° 0 mm 2 mps 733 mmHg 76%
01:00 +4°C° 0 mm 2 mps 732 mmHg 76%
02:00 +4°C° 0 mm 2 mps 732 mmHg 75%
03:00 +4°C° 0 mm 2 mps 731 mmHg 74%
04:00 +3°C° 0 mm 3 mps 731 mmHg 75%
05:00 +3°C° 0 mm 3 mps 730 mmHg 76%
06:00 +3°C° 0 mm 3 mps 730 mmHg 77%
07:00 +4°C° 0 mm 3 mps 730 mmHg 77%
08:00 +7°C° 0 mm 3 mps 730 mmHg 77%
09:00 +7°C° 0 mm 4 mps 729 mmHg 77%
10:00 +8°C° 0 mm 4 mps 729 mmHg 71%
11:00 +11°C° 0 mm 4 mps 729 mmHg 65%
12:00 +12°C° 0 mm 5 mps 728 mmHg 59%
13:00 +12°C° 0 mm 5 mps 728 mmHg 58%
14:00 +12°C° 0 mm 5 mps 727 mmHg 57%
15:00 +12°C° 0 mm 5 mps 726 mmHg 56%
16:00 +10°C° 0 mm 4 mps 726 mmHg 63%
17:00 +8°C° 0 mm 4 mps 726 mmHg 69%
18:00 +7°C° 0 mm 3 mps 726 mmHg 76%
19:00 +7°C° 0 mm 3 mps 726 mmHg 76%
20:00 +7°C° 0 mm 3 mps 726 mmHg 76%
21:00 +7°C° 0 mm 3 mps 726 mmHg 77%
22:00 +6°C° 0 mm 4 mps 725 mmHg 78%
23:00 +7°C° 0 mm 4 mps 725 mmHg 78%

Pasado mañana, 21 Enero, Jueves

Tiempo Temperatura Precipitaciones Viento Presión Humedad
00:00 +7°C° 0 mm 4 mps 725 mmHg 79%
01:00 +6°C° 0 mm 4 mps 725 mmHg 80%
02:00 +6°C° 0 mm 4 mps 725 mmHg 81%
03:00 +7°C° 0 mm 3 mps 725 mmHg 82%
04:00 +5°C° 0 mm 3 mps 725 mmHg 84%
05:00 +5°C° 0 mm 3 mps 725 mmHg 85%
06:00 +5°C° 0 mm 2 mps 725 mmHg 87%
07:00 +6°C° 0 mm 2 mps 726 mmHg 82%
08:00 +7°C° 0 mm 2 mps 726 mmHg 78%
09:00 +8°C° 0 mm 2 mps 727 mmHg 74%
10:00 +10°C° 0 mm 2 mps 727 mmHg 68%
11:00 +13°C° 0 mm 2 mps 727 mmHg 63%
12:00 +13°C° 0 mm 3 mps 727 mmHg 57%
13:00 +13°C° 0 mm 4 mps 726 mmHg 59%
14:00 +13°C° 0 mm 5 mps 725 mmHg 60%
15:00 +13°C° 0 mm 6 mps 725 mmHg 62%
16:00 +11°C° 0 mm 6 mps 724 mmHg 66%
17:00 +10°C° 0 mm 5 mps 724 mmHg 70%
18:00 +9°C° 0 mm 5 mps 724 mmHg 73%
19:00 +9°C° 0 mm 5 mps 724 mmHg 75%
20:00 +9°C° 0 mm 5 mps 724 mmHg 76%
21:00 +9°C° 0 mm 6 mps 724 mmHg 78%
22:00 +8°C° 0 mm 6 mps 724 mmHg 80%
23:00 +8°C° 0 mm 6 mps 724 mmHg 82%

22 Enero, Viernes

Tiempo Temperatura Precipitaciones Viento Presión Humedad
00:00 +8°C° 0 mm 6 mps 724 mmHg 84%
01:00 +7°C° 0 mm 5 mps 724 mmHg 82%
02:00 +7°C° 0 mm 4 mps 724 mmHg 81%
03:00 +6°C° 0 mm 4 mps 724 mmHg 79%
04:00 +7°C° 0 mm 3 mps 724 mmHg 79%
05:00 +5°C° 0 mm 3 mps 724 mmHg 79%
06:00 +6°C° 0 mm 2 mps 725 mmHg 80%
07:00 +6°C° 0 mm 2 mps 725 mmHg 77%
08:00 +7°C° 0 mm 2 mps 725 mmHg 74%
09:00 +8°C° 0 mm 2 mps 725 mmHg 71%
10:00 +9°C° 0 mm 2 mps 724 mmHg 68%
11:00 +9°C° 0 mm 2 mps 724 mmHg 65%
12:00 +10°C° 0 mm 3 mps 724 mmHg 62%
13:00 +9°C° 0.1 mm 2 mps 723 mmHg 68%
14:00 +9°C° 0.1 mm 2 mps 722 mmHg 74%
15:00 +8°C° 0.1 mm 2 mps 721 mmHg 80%
16:00 +7°C° 0.1 mm 2 mps 721 mmHg 84%
17:00 +6°C° 0.1 mm 2 mps 722 mmHg 87%
18:00 +7°C° 0.1 mm 1 mps 723 mmHg 91%
19:00 +6°C° 0 mm 1 mps 723 mmHg 91%
20:00 +6°C° 0 mm 1 mps 724 mmHg 91%
21:00 +6°C° 0 mm 1 mps 725 mmHg 91%
22:00 +5°C° 0 mm 1 mps 725 mmHg 91%
23:00 +5°C° 0 mm 1 mps 726 mmHg 90%

23 Enero, Sábado

Tiempo Temperatura Precipitaciones Viento Presión Humedad
00:00 +4°C° 0 mm 1 mps 726 mmHg 90%
01:00 +4°C° 0 mm 1 mps 726 mmHg 89%
02:00 +3°C° 0 mm 2 mps 726 mmHg 89%
03:00 +3°C° 0 mm 2 mps 726 mmHg 89%
04:00 +3°C° 0 mm 2 mps 725 mmHg 87%
05:00 +2°C° 0 mm 2 mps 725 mmHg 85%
06:00 +1°C° 0 mm 3 mps 725 mmHg 83%
07:00 +2°C° 0 mm 3 mps 725 mmHg 79%
08:00 +4°C° 0 mm 2 mps 726 mmHg 75%
09:00 +5°C° 0 mm 2 mps 726 mmHg 71%
10:00 +5°C° 0 mm 3 mps 726 mmHg 66%
11:00 +8°C° 0 mm 3 mps 726 mmHg 62%
12:00 +10°C° 0 mm 3 mps 726 mmHg 58%
13:00 +10°C° 0 mm 3 mps 725 mmHg 57%
14:00 +10°C° 0 mm 4 mps 725 mmHg 57%
15:00 +11°C° 0 mm 4 mps 724 mmHg 56%
16:00 +10°C° 0 mm 4 mps 724 mmHg 63%
17:00 +7°C° 0 mm 4 mps 724 mmHg 70%
18:00 +6°C° 0 mm 4 mps 723 mmHg 77%
19:00 +5°C° 0 mm 3 mps 723 mmHg 81%
20:00 +6°C° 0 mm 2 mps 723 mmHg 84%
21:00 +5°C° 0 mm 2 mps 723 mmHg 87%
22:00 +5°C° 0 mm 2 mps 723 mmHg 88%
23:00 +6°C° 0 mm 1 mps 723 mmHg 88%

24 Enero, Domingo

Tiempo Temperatura Precipitaciones Viento Presión Humedad
00:00 +6°C° 0 mm 1 mps 723 mmHg 89%
01:00 +6°C° 0 mm 1 mps 723 mmHg 90%
02:00 +6°C° 0 mm 1 mps 723 mmHg 90%
03:00 +6°C° 0 mm 1 mps 722 mmHg 90%
04:00 +6°C° 0 mm 1 mps 723 mmHg 90%
05:00 +5°C° 0 mm 2 mps 723 mmHg 90%
06:00 +5°C° 0 mm 2 mps 723 mmHg 90%
07:00 +7°C° 0 mm 1 mps 724 mmHg 85%
08:00 +8°C° 0 mm 1 mps 725 mmHg 80%
09:00 +9°C° 0 mm 1 mps 725 mmHg 75%
10:00 +10°C° 0 mm 1 mps 726 mmHg 72%
11:00 +11°C° 0 mm 1 mps 726 mmHg 69%
12:00 +12°C° 0 mm 2 mps 726 mmHg 66%
13:00 +12°C° 0 mm 2 mps 726 mmHg 69%
14:00 +12°C° 0 mm 1 mps 727 mmHg 71%
15:00 +12°C° 0 mm 1 mps 727 mmHg 73%
16:00 +10°C° 0.1 mm 1 mps 727 mmHg 79%
17:00 +9°C° 0.1 mm 1 mps 727 mmHg 86%
18:00 +8°C° 0.1 mm 1 mps 728 mmHg 92%
19:00 +8°C° 0 mm 1 mps 728 mmHg 92%
20:00 +8°C° 0 mm 1 mps 729 mmHg 92%
21:00 +8°C° 0 mm 1 mps 729 mmHg 92%
22:00 +8°C° 0 mm 1 mps 729 mmHg 92%
23:00 +8°C° 0 mm 1 mps 730 mmHg 91%
Mostrar más

Necesitamos Su Consentimiento

Meteoprog y nuestros Proveedores de Servicios pueden almacenar y acceder a sus datos personales como cookies, identificadores de dispositivo u otras tecnologías similares de su dispositivo y procesar dichos datos para personalizar contenido y anuncios, además de ofrecer funciones de redes sociales y analizar el tráfico.

  • Almacenar y/o acceder a información en su dispositivo

    Se puede almacenar o acceder a cookies, identificadores de dispositivo u otra información de su dispositivo para los fines anteriormente indicados.

  • Anuncios y contenido personalizados, medición de anuncios y contenido, percepciones del público, y desarrollo de productos

    Los anuncios y el contenido pueden personalizarse en base a su perfil. Se pueden añadir más datos para personalizar mejor los anuncios y contenidos. Se puede medir el rendimiento de los anuncios y contenidos. Se puede obtener la percepción sobre el público que ha visto los anuncios y contenidos. Dichos datos pueden usarse para desarrollar o mejorar la experiencia del usuario, sistemas y software.

Al hacer clic en ‘Estoy De Acuerdo’ usted permitirá el uso de las cookies, identificadores de dispositivo, balizas web u otras tecnologías similares indicadas. Su configuración puede cambiarse desde el navegador de su dispositivo.

Para ciertos fines, los intereses legítimos pueden ser considerados por encima del consentimiento. Puede leer más sobre ello en nuestra Política de Privacidad y Cookies.